Year,Month,Day,Hour,Minute,Value (Times are PST for windgust in km/hr)
2015,08,29,00,11,3.20
2015,08,29,00,14,4.80
2015,08,29,00,15,6.40
2015,08,29,00,16,8.10
2015,08,29,00,19,4.80
2015,08,29,00,20,6.40
2015,08,29,00,21,6.40
2015,08,29,00,22,9.60
2015,08,29,00,23,14.50
2015,08,29,00,24,8.10
2015,08,29,00,25,4.80
2015,08,29,00,28,6.40
2015,08,29,00,29,1.60
2015,08,29,00,33,4.80
2015,08,29,00,34,4.80
2015,08,29,00,36,8.10
2015,08,29,00,37,3.20
2015,08,29,00,41,4.80
2015,08,29,00,42,8.10
2015,08,29,00,43,1.60
2015,08,29,00,45,9.60
2015,08,29,00,46,8.10
2015,08,29,00,48,1.60
2015,08,29,00,50,9.60
2015,08,29,00,51,8.10
2015,08,29,00,52,8.10
2015,08,29,00,53,8.10
2015,08,29,00,54,4.80
2015,08,29,00,55,4.80
2015,08,29,01,02,6.40
2015,08,29,01,04,6.40
2015,08,29,01,05,11.30
2015,08,29,01,06,12.90
2015,08,29,01,07,6.40
2015,08,29,01,08,6.40
2015,08,29,01,09,8.10
2015,08,29,01,10,4.80
2015,08,29,01,11,11.30
2015,08,29,01,12,8.10
2015,08,29,01,13,6.40
2015,08,29,01,19,4.80
2015,08,29,01,21,8.10
2015,08,29,01,22,4.80
2015,08,29,01,23,8.10
2015,08,29,01,24,3.20
2015,08,29,01,25,6.40
2015,08,29,01,27,8.10
2015,08,29,01,29,9.60
2015,08,29,01,30,9.60
2015,08,29,01,31,11.30
2015,08,29,01,32,9.60
2015,08,29,01,33,6.40
2015,08,29,01,34,8.10
2015,08,29,01,35,3.20
2015,08,29,01,36,9.60
2015,08,29,01,40,1.60
2015,08,29,01,41,3.20
2015,08,29,01,47,4.80
2015,08,29,01,48,11.30
2015,08,29,01,49,6.40
2015,08,29,01,50,3.20
2015,08,29,01,54,1.60
2015,08,29,01,58,6.40
2015,08,29,01,59,6.40
2015,08,29,02,01,6.40
2015,08,29,02,02,4.80
2015,08,29,02,03,4.80
2015,08,29,02,04,4.80
2015,08,29,02,14,6.40
2015,08,29,02,15,4.80
2015,08,29,02,21,1.60
2015,08,29,02,23,8.10
2015,08,29,02,24,3.20
2015,08,29,02,27,4.80
2015,08,29,02,30,9.60
2015,08,29,02,31,9.60
2015,08,29,02,32,6.40
2015,08,29,02,33,8.10
2015,08,29,02,34,9.60
2015,08,29,02,35,11.30
2015,08,29,02,36,11.30
2015,08,29,02,37,6.40
2015,08,29,02,38,16.10
2015,08,29,02,39,3.20
2015,08,29,02,40,11.30
2015,08,29,02,41,11.30
2015,08,29,02,42,3.20
2015,08,29,02,43,3.20
2015,08,29,02,44,14.50
2015,08,29,02,46,8.10
2015,08,29,02,47,11.30
2015,08,29,02,48,14.50
2015,08,29,02,49,16.10
2015,08,29,02,50,6.40
2015,08,29,02,51,16.10
2015,08,29,02,53,8.10
2015,08,29,02,54,6.40
2015,08,29,02,55,14.50
2015,08,29,02,56,11.30
2015,08,29,02,57,6.40
2015,08,29,02,58,6.40
2015,08,29,02,59,4.80
2015,08,29,03,00,6.40
2015,08,29,03,01,6.40
2015,08,29,03,02,9.60
2015,08,29,03,04,4.80
2015,08,29,03,06,6.40
2015,08,29,03,07,9.60
2015,08,29,03,08,3.20
2015,08,29,03,10,3.20
2015,08,29,03,12,16.10
2015,08,29,03,13,9.60
2015,08,29,03,14,6.40
2015,08,29,03,15,6.40
2015,08,29,03,16,8.10
2015,08,29,03,17,1.60
2015,08,29,03,18,1.60
2015,08,29,03,20,1.60
2015,08,29,03,22,6.40
2015,08,29,03,23,4.80
2015,08,29,03,25,9.60
2015,08,29,03,27,8.10
2015,08,29,03,28,6.40
2015,08,29,03,31,6.40
2015,08,29,03,33,9.60
2015,08,29,03,37,8.10
2015,08,29,03,38,9.60
2015,08,29,03,39,8.10
2015,08,29,03,40,9.60
2015,08,29,03,41,9.60
2015,08,29,03,42,8.10
2015,08,29,03,43,9.60
2015,08,29,03,44,9.60
2015,08,29,03,53,6.40
2015,08,29,03,54,1.60
2015,08,29,03,55,3.20
2015,08,29,03,56,8.10
2015,08,29,03,59,1.60
2015,08,29,04,00,3.20
2015,08,29,04,02,6.40
2015,08,29,04,04,6.40
2015,08,29,04,05,4.80
2015,08,29,04,06,9.60
2015,08,29,04,07,1.60
2015,08,29,04,09,8.10
2015,08,29,04,10,6.40
2015,08,29,04,11,8.10
2015,08,29,04,12,11.30
2015,08,29,04,13,4.80
2015,08,29,04,16,4.80
2015,08,29,04,17,9.60
2015,08,29,04,18,6.40
2015,08,29,04,19,8.10
2015,08,29,04,20,8.10
2015,08,29,04,21,8.10
2015,08,29,04,22,3.20
2015,08,29,04,23,4.80
2015,08,29,04,26,8.10
2015,08,29,04,27,3.20
2015,08,29,04,30,9.60
2015,08,29,04,31,4.80
2015,08,29,04,32,6.40
2015,08,29,04,33,8.10
2015,08,29,04,34,8.10
2015,08,29,04,35,6.40
2015,08,29,04,36,11.30
2015,08,29,04,37,11.30
2015,08,29,04,38,1.60
2015,08,29,04,39,9.60
2015,08,29,04,40,4.80
2015,08,29,04,41,9.60
2015,08,29,04,42,6.40
2015,08,29,04,43,6.40
2015,08,29,04,44,3.20
2015,08,29,04,45,6.40
2015,08,29,04,46,9.60
2015,08,29,04,47,6.40
2015,08,29,04,49,8.10
2015,08,29,04,50,4.80
2015,08,29,04,51,11.30
2015,08,29,04,52,14.50
2015,08,29,04,53,8.10
2015,08,29,04,54,9.60
2015,08,29,04,55,9.60
2015,08,29,04,56,8.10
2015,08,29,04,57,9.60
2015,08,29,04,58,4.80
2015,08,29,04,59,9.60
2015,08,29,05,00,6.40
2015,08,29,05,01,16.10
2015,08,29,05,02,9.60
2015,08,29,05,03,4.80
2015,08,29,05,04,1.60
2015,08,29,05,05,9.60
2015,08,29,05,06,6.40
2015,08,29,05,07,6.40
2015,08,29,05,08,11.30
2015,08,29,05,09,6.40
2015,08,29,05,10,6.40
2015,08,29,05,11,9.60
2015,08,29,05,12,9.60
2015,08,29,05,13,8.10
2015,08,29,05,16,4.80
2015,08,29,05,18,4.80
2015,08,29,05,19,1.60
2015,08,29,05,21,11.30
2015,08,29,05,22,6.40
2015,08,29,05,24,6.40
2015,08,29,05,25,4.80
2015,08,29,05,28,6.40
2015,08,29,05,29,6.40
2015,08,29,05,46,3.20
2015,08,29,05,47,8.10
2015,08,29,05,48,8.10
2015,08,29,05,49,14.50
2015,08,29,05,50,16.10
2015,08,29,05,51,22.50
2015,08,29,05,52,19.30
2015,08,29,05,53,19.30
2015,08,29,05,54,8.10
2015,08,29,05,55,6.40
2015,08,29,05,56,8.10
2015,08,29,06,10,8.10
2015,08,29,06,21,4.80
2015,08,29,06,22,4.80
2015,08,29,06,28,8.10
2015,08,29,06,29,1.60
2015,08,29,06,30,4.80
2015,08,29,06,31,8.10
2015,08,29,06,32,8.10
2015,08,29,06,33,9.60
2015,08,29,06,34,8.10
2015,08,29,06,35,11.30
2015,08,29,06,36,8.10
2015,08,29,06,37,8.10
2015,08,29,06,38,9.60
2015,08,29,06,39,14.50
2015,08,29,06,40,9.60
2015,08,29,06,41,11.30
2015,08,29,06,42,12.90
2015,08,29,06,43,11.30
2015,08,29,06,47,9.60
2015,08,29,06,48,11.30
2015,08,29,06,49,9.60
2015,08,29,06,50,16.10
2015,08,29,06,51,14.50
2015,08,29,06,52,8.10
2015,08,29,06,53,9.60
2015,08,29,06,54,12.90
2015,08,29,06,55,11.30
2015,08,29,06,56,8.10
2015,08,29,06,57,11.30
2015,08,29,06,58,11.30
2015,08,29,06,59,11.30
2015,08,29,07,00,9.60
2015,08,29,07,01,9.60
2015,08,29,07,02,8.10
2015,08,29,07,03,9.60
2015,08,29,07,04,11.30
2015,08,29,07,05,9.60
2015,08,29,07,06,19.30
2015,08,29,07,07,17.70
2015,08,29,07,08,16.10
2015,08,29,07,09,8.10
2015,08,29,07,10,16.10
2015,08,29,07,11,14.50
2015,08,29,07,12,11.30
2015,08,29,07,13,8.10
2015,08,29,07,14,14.50
2015,08,29,07,15,9.60
2015,08,29,07,16,9.60
2015,08,29,07,17,11.30
2015,08,29,07,18,11.30
2015,08,29,07,19,16.10
2015,08,29,07,20,17.70
2015,08,29,07,21,14.50
2015,08,29,07,22,11.30
2015,08,29,07,23,17.70
2015,08,29,07,24,17.70
2015,08,29,07,25,11.30
2015,08,29,07,26,17.70
2015,08,29,07,27,11.30
2015,08,29,07,28,8.10
2015,08,29,07,29,14.50
2015,08,29,07,30,17.70
2015,08,29,07,31,17.70
2015,08,29,07,32,16.10
2015,08,29,07,33,17.70
2015,08,29,07,34,19.30
2015,08,29,07,35,22.50
2015,08,29,07,36,24.20
2015,08,29,07,37,8.10
2015,08,29,07,38,16.10
2015,08,29,07,41,8.10
2015,08,29,07,42,8.10
2015,08,29,07,45,8.10
2015,08,29,07,47,1.60
2015,08,29,07,48,9.60
2015,08,29,07,52,8.10
2015,08,29,07,53,4.80
2015,08,29,07,54,6.40
2015,08,29,07,55,11.30
2015,08,29,07,56,8.10
2015,08,29,07,57,1.60
2015,08,29,07,58,19.30
2015,08,29,07,59,3.20
2015,08,29,08,00,4.80
2015,08,29,08,01,8.10
2015,08,29,08,05,12.90
2015,08,29,08,06,9.60
2015,08,29,08,07,11.30
2015,08,29,08,09,8.10
2015,08,29,08,11,6.40
2015,08,29,08,12,8.10
2015,08,29,08,13,4.80
2015,08,29,08,16,8.10
2015,08,29,08,17,6.40
2015,08,29,08,18,9.60
2015,08,29,08,19,8.10
2015,08,29,08,21,1.60
2015,08,29,08,22,9.60
2015,08,29,08,23,9.60
2015,08,29,08,25,6.40
2015,08,29,08,26,8.10
2015,08,29,08,29,12.90
2015,08,29,08,30,8.10
2015,08,29,08,31,8.10
2015,08,29,08,32,9.60
2015,08,29,08,33,8.10
2015,08,29,08,34,9.60
2015,08,29,08,35,8.10
2015,08,29,08,38,8.10
2015,08,29,08,39,6.40
2015,08,29,08,42,11.30
2015,08,29,08,43,14.50
2015,08,29,08,44,12.90
2015,08,29,08,45,3.20
2015,08,29,08,46,6.40
2015,08,29,08,48,8.10
2015,08,29,08,49,6.40
2015,08,29,08,50,11.30
2015,08,29,08,51,19.30
2015,08,29,08,52,19.30
2015,08,29,08,53,8.10
2015,08,29,08,54,9.60
2015,08,29,08,55,14.50
2015,08,29,08,56,16.10
2015,08,29,08,57,19.30
2015,08,29,08,58,20.90
2015,08,29,08,59,16.10
2015,08,29,09,00,19.30
2015,08,29,09,01,3.20
2015,08,29,09,02,9.60
2015,08,29,09,03,11.30
2015,08,29,09,04,17.70
2015,08,29,09,05,11.30
2015,08,29,09,06,12.90
2015,08,29,09,07,16.10
2015,08,29,09,08,11.30
2015,08,29,09,09,16.10
2015,08,29,09,10,9.60
2015,08,29,09,11,8.10
2015,08,29,09,13,1.60
2015,08,29,09,17,9.60
2015,08,29,09,18,9.60
2015,08,29,09,19,8.10
2015,08,29,09,20,6.40
2015,08,29,09,21,11.30
2015,08,29,09,22,1.60
2015,08,29,09,23,8.10
2015,08,29,09,24,6.40
2015,08,29,09,25,4.80
2015,08,29,09,26,12.90
2015,08,29,09,27,9.60
2015,08,29,09,28,9.60
2015,08,29,09,29,8.10
2015,08,29,09,30,17.70
2015,08,29,09,31,16.10
2015,08,29,09,32,14.50
2015,08,29,09,33,19.30
2015,08,29,09,34,17.70
2015,08,29,09,35,25.70
2015,08,29,09,36,16.10
2015,08,29,09,37,27.40
2015,08,29,09,38,25.70
2015,08,29,09,39,29.00
2015,08,29,09,40,24.20
2015,08,29,09,41,22.50
2015,08,29,09,42,24.20
2015,08,29,09,43,29.00
2015,08,29,09,44,25.70
2015,08,29,09,45,25.70
2015,08,29,09,46,24.20
2015,08,29,09,47,30.60
2015,08,29,09,48,19.30
2015,08,29,09,49,32.20
2015,08,29,09,50,35.40
2015,08,29,09,51,37.00
2015,08,29,09,52,32.20
2015,08,29,09,53,29.00
2015,08,29,09,54,19.30
2015,08,29,09,55,27.40
2015,08,29,09,56,25.70
2015,08,29,09,57,35.40
2015,08,29,09,58,9.60
2015,08,29,09,59,43.50
2015,08,29,10,00,45.10
2015,08,29,10,01,37.00
2015,08,29,10,02,32.20
2015,08,29,10,03,37.00
2015,08,29,10,04,22.50
2015,08,29,10,05,22.50
2015,08,29,10,06,27.40
2015,08,29,10,07,29.00
2015,08,29,10,08,32.20
2015,08,29,10,09,27.40
2015,08,29,10,10,29.00
2015,08,29,10,11,22.50
2015,08,29,10,12,22.50
2015,08,29,10,13,25.70
2015,08,29,10,14,27.40
2015,08,29,10,15,29.00
2015,08,29,10,16,30.60
2015,08,29,10,17,30.60
2015,08,29,10,18,33.80
2015,08,29,10,19,29.00
2015,08,29,10,20,32.20
2015,08,29,10,21,16.10
2015,08,29,10,22,24.20
2015,08,29,10,23,32.20
2015,08,29,10,24,20.90
2015,08,29,10,25,27.40
2015,08,29,10,26,30.60
2015,08,29,10,27,24.20
2015,08,29,10,28,24.20
2015,08,29,10,29,30.60
2015,08,29,10,30,19.30
2015,08,29,10,31,19.30
2015,08,29,10,32,43.50
2015,08,29,10,33,24.20
2015,08,29,10,34,38.60
2015,08,29,10,35,30.60
2015,08,29,10,36,32.20
2015,08,29,10,37,38.60
2015,08,29,10,38,33.80
2015,08,29,10,39,33.80
2015,08,29,10,40,40.20
2015,08,29,10,41,37.00
2015,08,29,10,42,35.40
2015,08,29,10,43,32.20
2015,08,29,10,44,30.60
2015,08,29,10,45,35.40
2015,08,29,10,46,27.40
2015,08,29,10,47,46.70
2015,08,29,10,48,35.40
2015,08,29,10,49,37.00
2015,08,29,10,50,35.40
2015,08,29,10,51,29.00
2015,08,29,10,52,40.20
2015,08,29,10,53,33.80
2015,08,29,10,54,19.30
2015,08,29,10,55,45.10
2015,08,29,10,56,37.00
2015,08,29,10,57,33.80
2015,08,29,10,58,45.10
2015,08,29,10,59,46.70
2015,08,29,11,00,37.00
2015,08,29,11,01,25.70
2015,08,29,11,02,25.70
2015,08,29,11,03,43.50
2015,08,29,11,04,33.80
2015,08,29,11,05,29.00
2015,08,29,11,06,45.10
2015,08,29,11,07,45.10
2015,08,29,11,08,30.60
2015,08,29,11,09,32.20
2015,08,29,11,10,30.60
2015,08,29,11,11,32.20
2015,08,29,11,12,29.00
2015,08,29,11,13,30.60
2015,08,29,11,14,22.50
2015,08,29,11,15,33.80
2015,08,29,11,16,30.60
2015,08,29,11,17,45.10
2015,08,29,11,18,25.70
2015,08,29,11,19,37.00
2015,08,29,11,20,37.00
2015,08,29,11,21,30.60
2015,08,29,11,22,38.60
2015,08,29,11,23,37.00
2015,08,29,11,24,29.00
2015,08,29,11,25,20.90
2015,08,29,11,26,46.70
2015,08,29,11,27,35.40
2015,08,29,11,28,35.40
2015,08,29,11,29,32.20
2015,08,29,11,30,32.20
2015,08,29,11,31,25.70
2015,08,29,11,32,19.30
2015,08,29,11,33,20.90
2015,08,29,11,34,24.20
2015,08,29,11,35,20.90
2015,08,29,11,36,17.70
2015,08,29,11,37,11.30
2015,08,29,11,38,32.20
2015,08,29,11,39,25.70
2015,08,29,11,40,29.00
2015,08,29,11,41,24.20
2015,08,29,11,42,30.60
2015,08,29,11,43,29.00
2015,08,29,11,44,19.30
2015,08,29,11,45,20.90
2015,08,29,11,46,14.50
2015,08,29,11,47,25.70
2015,08,29,11,48,30.60
2015,08,29,11,49,24.20
2015,08,29,11,50,22.50
2015,08,29,11,51,22.50
2015,08,29,11,52,20.90
2015,08,29,11,53,20.90
2015,08,29,11,54,14.50
2015,08,29,11,55,16.10
2015,08,29,11,56,6.40
2015,08,29,11,57,8.10
2015,08,29,11,58,16.10
2015,08,29,11,59,11.30
2015,08,29,12,00,20.90
2015,08,29,12,01,20.90
2015,08,29,12,02,11.30
2015,08,29,12,03,11.30
2015,08,29,12,04,14.50
2015,08,29,12,05,11.30
2015,08,29,12,06,19.30
2015,08,29,12,07,20.90
2015,08,29,12,08,16.10
2015,08,29,12,09,6.40
2015,08,29,12,10,1.60
2015,08,29,12,12,9.60
2015,08,29,12,13,1.60
2015,08,29,12,29,3.20
2015,08,29,12,30,8.10
2015,08,29,12,31,12.90
2015,08,29,12,32,9.60
2015,08,29,12,33,8.10
2015,08,29,12,34,6.40
2015,08,29,12,37,6.40
2015,08,29,12,38,9.60
2015,08,29,12,39,9.60
2015,08,29,12,40,9.60
2015,08,29,12,41,6.40
2015,08,29,12,42,8.10
2015,08,29,12,43,3.20
2015,08,29,12,44,16.10
2015,08,29,12,45,12.90
2015,08,29,12,46,9.60
2015,08,29,12,48,4.80
2015,08,29,12,49,6.40
2015,08,29,12,50,3.20
2015,08,29,12,51,1.60
2015,08,29,13,07,1.60
2015,08,29,13,08,11.30
2015,08,29,13,09,6.40
2015,08,29,13,10,8.10
2015,08,29,13,11,11.30
2015,08,29,13,12,8.10
2015,08,29,13,13,9.60
2015,08,29,13,14,9.60
2015,08,29,13,15,6.40
2015,08,29,13,16,9.60
2015,08,29,13,17,4.80
2015,08,29,13,18,14.50
2015,08,29,13,19,12.90
2015,08,29,13,20,11.30
2015,08,29,13,21,3.20
2015,08,29,13,22,6.40
2015,08,29,13,23,8.10
2015,08,29,13,24,3.20
2015,08,29,13,27,9.60
2015,08,29,13,28,6.40
2015,08,29,13,29,9.60
2015,08,29,13,30,4.80
2015,08,29,13,31,6.40
2015,08,29,13,32,6.40
2015,08,29,13,33,4.80
2015,08,29,13,34,11.30
2015,08,29,13,35,6.40
2015,08,29,13,36,1.60
2015,08,29,13,38,1.60
2015,08,29,13,39,11.30
2015,08,29,13,40,4.80
2015,08,29,13,41,9.60
2015,08,29,13,42,17.70
2015,08,29,13,43,19.30
2015,08,29,13,44,17.70
2015,08,29,13,45,6.40
2015,08,29,13,46,8.10
2015,08,29,13,47,3.20
2015,08,29,13,48,11.30
2015,08,29,13,49,9.60
2015,08,29,13,50,22.50
2015,08,29,13,51,22.50
2015,08,29,13,52,20.90
2015,08,29,13,53,24.20
2015,08,29,13,54,29.00
2015,08,29,13,55,25.70
2015,08,29,13,56,24.20
2015,08,29,13,57,53.10
2015,08,29,13,58,46.70
2015,08,29,13,59,29.00
2015,08,29,14,00,40.20
2015,08,29,14,01,30.60
2015,08,29,14,02,30.60
2015,08,29,14,03,45.10
2015,08,29,14,04,32.20
2015,08,29,14,05,54.70
2015,08,29,14,06,49.90
2015,08,29,14,07,43.50
2015,08,29,14,08,40.20
2015,08,29,14,09,38.60
2015,08,29,14,10,45.10
2015,08,29,14,11,43.50
2015,08,29,14,12,45.10
2015,08,29,14,13,35.40
2015,08,29,14,14,43.50
2015,08,29,14,15,33.80
2015,08,29,14,16,37.00
2015,08,29,14,17,33.80
2015,08,29,14,18,40.20
2015,08,29,14,19,37.00
2015,08,29,14,20,35.40
2015,08,29,14,21,38.60
2015,08,29,14,22,41.80
2015,08,29,14,23,53.10
2015,08,29,14,24,57.90
2015,08,29,14,25,49.90
2015,08,29,14,26,41.80
2015,08,29,14,27,49.90
2015,08,29,14,28,46.70
2015,08,29,14,29,32.20
2015,08,29,14,30,40.20
2015,08,29,14,31,33.80
2015,08,29,14,32,33.80
2015,08,29,14,33,32.20
2015,08,29,14,34,33.80
2015,08,29,14,35,30.60
2015,08,29,14,36,29.00
2015,08,29,14,37,46.70
2015,08,29,14,38,37.00
2015,08,29,14,39,37.00
2015,08,29,14,40,27.40
2015,08,29,14,41,33.80
2015,08,29,14,42,41.80
2015,08,29,14,43,43.50
2015,08,29,14,44,41.80
2015,08,29,14,45,37.00
2015,08,29,14,46,32.20
2015,08,29,14,47,35.40
2015,08,29,14,48,30.60
2015,08,29,14,49,29.00
2015,08,29,14,50,33.80
2015,08,29,14,51,20.90
2015,08,29,14,52,33.80
2015,08,29,14,53,20.90
2015,08,29,14,54,33.80
2015,08,29,14,55,37.00
2015,08,29,14,56,41.80
2015,08,29,14,57,29.00
2015,08,29,14,58,35.40
2015,08,29,14,59,37.00
2015,08,29,15,00,27.40
2015,08,29,15,01,30.60
2015,08,29,15,02,27.40
2015,08,29,15,03,29.00
2015,08,29,15,04,32.20
2015,08,29,15,05,20.90
2015,08,29,15,06,19.30
2015,08,29,15,07,29.00
2015,08,29,15,08,17.70
2015,08,29,15,09,32.20
2015,08,29,15,10,27.40
2015,08,29,15,11,20.90
2015,08,29,15,12,29.00
2015,08,29,15,13,37.00
2015,08,29,15,14,24.20
2015,08,29,15,15,24.20
2015,08,29,15,16,27.40
2015,08,29,15,17,29.00
2015,08,29,15,18,29.00
2015,08,29,15,19,25.70
2015,08,29,15,20,11.30
2015,08,29,15,21,20.90
2015,08,29,15,22,27.40
2015,08,29,15,23,20.90
2015,08,29,15,24,16.10
2015,08,29,15,25,25.70
2015,08,29,15,26,32.20
2015,08,29,15,27,22.50
2015,08,29,15,28,24.20
2015,08,29,15,29,24.20
2015,08,29,15,30,17.70
2015,08,29,15,31,25.70
2015,08,29,15,32,24.20
2015,08,29,15,33,29.00
2015,08,29,15,34,20.90
2015,08,29,15,35,20.90
2015,08,29,15,36,14.50
2015,08,29,15,37,22.50
2015,08,29,15,38,19.30
2015,08,29,15,39,16.10
2015,08,29,15,40,25.70
2015,08,29,15,41,20.90
2015,08,29,15,42,19.30
2015,08,29,15,43,19.30
2015,08,29,15,44,16.10
2015,08,29,15,45,20.90
2015,08,29,15,46,11.30
2015,08,29,15,47,14.50
2015,08,29,15,48,11.30
2015,08,29,15,49,16.10
2015,08,29,15,50,17.70
2015,08,29,15,51,9.60
2015,08,29,15,52,9.60
2015,08,29,15,53,14.50
2015,08,29,15,54,16.10
2015,08,29,15,55,16.10
2015,08,29,15,56,14.50
2015,08,29,15,57,6.40
2015,08,29,16,00,1.60
2015,08,29,16,01,3.20
2015,08,29,16,02,1.60
2015,08,29,16,03,11.30
2015,08,29,16,04,9.60
2015,08,29,16,05,12.90
2015,08,29,16,06,11.30
2015,08,29,16,07,6.40
2015,08,29,16,08,4.80
2015,08,29,16,09,8.10
2015,08,29,16,10,9.60
2015,08,29,16,11,3.20
2015,08,29,16,12,6.40
2015,08,29,16,13,11.30
2015,08,29,16,14,11.30
2015,08,29,16,15,8.10
2015,08,29,16,16,4.80
2015,08,29,16,17,11.30
2015,08,29,16,18,11.30
2015,08,29,16,20,1.60
2015,08,29,16,21,11.30
2015,08,29,16,25,1.60
2015,08,29,16,39,3.20
2015,08,29,16,40,1.60
2015,08,29,16,42,3.20
2015,08,29,17,23,4.80
2015,08,29,17,24,6.40
2015,08,29,17,25,6.40
2015,08,29,17,26,3.20
2015,08,29,17,27,4.80
2015,08,29,17,28,4.80
2015,08,29,17,31,3.20
2015,08,29,17,32,6.40
2015,08,29,17,50,1.60
2015,08,29,17,57,6.40
2015,08,29,17,58,6.40
2015,08,29,17,59,1.60
2015,08,29,18,01,6.40
2015,08,29,18,02,4.80
2015,08,29,18,03,8.10
2015,08,29,18,04,1.60
2015,08,29,18,05,11.30
2015,08,29,18,06,4.80
2015,08,29,18,07,9.60
2015,08,29,18,08,17.70
2015,08,29,18,09,11.30
2015,08,29,18,10,16.10
2015,08,29,18,11,16.10
2015,08,29,18,12,9.60
2015,08,29,18,13,17.70
2015,08,29,18,14,9.60
2015,08,29,18,15,11.30
2015,08,29,18,16,19.30
2015,08,29,18,17,8.10
2015,08,29,18,18,11.30
2015,08,29,18,19,14.50
2015,08,29,18,20,14.50
2015,08,29,18,21,11.30
2015,08,29,18,22,6.40
2015,08,29,18,23,1.60
2015,08,29,18,24,1.60
2015,08,29,18,25,9.60
2015,08,29,18,26,8.10
2015,08,29,18,28,12.90
2015,08,29,18,29,6.40
2015,08,29,18,30,9.60
2015,08,29,18,31,1.60
2015,08,29,18,32,1.60
2015,08,29,18,33,6.40
2015,08,29,18,34,3.20
2015,08,29,18,36,1.60
2015,08,29,18,37,3.20
2015,08,29,18,38,6.40
2015,08,29,18,41,6.40
2015,08,29,19,29,1.60
2015,08,29,19,30,3.20
2015,08,29,19,37,4.80
2015,08,29,19,41,6.40
2015,08,29,19,42,6.40
2015,08,29,20,09,1.60
2015,08,29,20,41,6.40
2015,08,29,20,50,6.40
2015,08,29,20,51,8.10
2015,08,29,20,58,1.60
2015,08,29,20,59,4.80
2015,08,29,21,02,4.80
2015,08,29,21,11,8.10
2015,08,29,21,12,6.40
2015,08,29,21,13,1.60
2015,08,29,21,14,6.40
2015,08,29,21,15,6.40
2015,08,29,21,16,1.60
2015,08,29,21,17,8.10
2015,08,29,21,18,8.10
2015,08,29,21,19,8.10
2015,08,29,21,20,4.80
2015,08,29,21,21,4.80
2015,08,29,21,22,1.60
2015,08,29,21,23,6.40
2015,08,29,21,24,1.60
2015,08,29,21,34,1.60
2015,08,29,21,41,6.40
2015,08,29,21,45,1.60
